Location: Bailleul
(50.3375°N, 2.8513°E)
Time: 18:35:49
(UTC+00:00)

Terra - Pass Details

Date: 07 August 2021
Orbit: 701 x 703 km, 98.2° (Epoch: 17 September)

Event Time Altitude Azimuth Distance (km) Brightness Sun altitude
Exits shadow 22:20:56 23° 216° (SW) 1,462 3.2 -20.4°
Maximum altitude 22:23:07 35° 264° (W) 1,127 3.0 -20.6°
Drops below altitude 10° 22:27:31 10° 330° (NNW) 2,183 5.5 -20.8°
Sets 22:29:58 0° 340° (NNW) 3,107 6.7 -21.0°
